RH
14 15 15 14 13 12 13 14 15 15 16 22 25 25 29 28 23 23 23 21 22 22 18 14 12 11 12 12 11 13 13 13 16 18 20 26 32 35 41 49 49 49 56 58 53 46 41 41 39 36 40 45 45 44 42 42 45 43 41 48 57 63 65 65 71 78 77 75 77 78 79 77 75 75 76 75 77 81 79 80 84 82 81 82 79 81
17 16 15 13 12 13 15 16 15 17 17 19 22 23 28 28 22 23 24 22 22 22 21 17 14 13 12 12 12 12 13 14 15 17 18 21 29 34 35 41 44 46 55 61 58 52 44 38 34 35 40 44 46 47 41 39 43 42 41 47 57 67 72 71 74 77 73 73 76 75 77 80 79 82 83 79 78 79 78 80 82 79 81 81 77 82
22 17 14 13 14 15 16 18 16 17 18 18 21 22 25 25 23 24 23 22 21 22 24 20 16 14 13 12 12 12 12 14 16 16 17 20 23 27 29 32 36 37 47 57 60 56 48 41 37 38 45 48 49 49 44 39 38 39 41 46 55 65 74 75 75 77 75 75 76 75 78 82 82 83 85 84 81 80 79 79 78 75 78 83 80 81
28 19 14 12 15 18 17 17 18 20 20 20 22 23 23 21 21 23 22 23 24 23 26 24 19 16 14 14 14 14 13 13 15 15 16 19 19 22 23 28 35 38 43 52 57 58 55 50 45 43 50 55 53 47 44 41 37 40 45 50 58 61 68 75 75 75 74 71 74 77 77 77 78 82 86 86 84 83 80 77 75 72 73 78 79 80
28 21 19 18 15 18 18 17 20 24 25 25 24 22 22 19 15 18 23 27 28 27 28 25 22 19 16 16 15 14 15 13 13 14 16 16 17 20 19 22 31 36 42 48 52 60 62 56 49 45 45 51 53 46 43 44 42 46 52 55 61 61 59 64 67 67 66 68 74 77 76 73 78 85 86 84 84 83 81 75 73 72 73 73 73 80
25 23 29 30 19 16 18 18 21 24 25 25 22 18 18 18 16 18 24 28 28 28 29 29 25 21 16 16 16 15 15 15 15 14 15 15 16 18 18 23 30 31 37 42 46 57 61 55 51 46 38 38 44 44 44 47 48 53 58 56 57 57 55 56 59 62 64 68 74 78 77 74 78 83 83 82 83 82 78 73 72 70 72 73 70 73
24 22 27 31 23 17 18 22 24 24 23 21 19 17 15 15 16 18 25 30 30 28 29 30 28 24 19 18 20 22 20 20 21 18 19 20 19 18 17 22 30 31 31 34 40 49 53 53 52 44 34 31 39 45 47 51 53 55 59 59 58 57 58 60 63 64 66 70 74 78 79 76 77 82 82 80 79 78 74 71 71 67 68 70 67 65
25 23 24 27 24 21 21 25 25 22 22 20 16 17 19 20 19 17 20 25 27 27 24 22 23 23 19 17 22 27 26 24 25 25 24 23 22 22 20 23 31 34 31 30 34 38 44 50 48 39 31 31 40 46 51 59 60 59 63 64 63 63 61 61 63 66 68 69 70 73 74 74 75 78 80 80 78 75 72 70 67 67 70 68 61 61
27 23 24 27 24 24 25 25 22 20 21 19 16 20 25 29 27 20 19 21 22 22 19 17 20 22 19 20 24 27 26 26 27 30 30 29 29 30 30 30 35 39 38 36 35 35 36 39 37 33 31 34 43 48 59 71 69 65 66 58 55 56 56 57 60 64 66 64 66 68 69 70 71 73 76 77 76 72 69 69 67 68 70 64 59 62
30 26 26 32 30 26 26 24 19 19 20 17 18 24 26 25 24 21 19 19 20 20 18 17 20 23 23 27 31 31 31 31 31 34 34 34 35 35 34 35 37 42 44 41 41 40 36 32 31 32 33 38 48 52 63 77 74 67 62 52 48 49 50 54 57 60 62 61 64 67 66 68 70 71 72 72 72 70 69 70 69 68 66 62 61 63
34 36 31 33 32 25 23 22 18 17 19 18 18 22 23 21 21 22 19 18 20 20 18 16 19 22 23 27 32 34 38 36 34 37 37 36 37 38 37 35 35 42 46 42 44 46 42 38 39 39 40 47 55 57 64 77 76 65 57 52 51 49 49 54 55 57 60 59 60 62 63 65 67 69 71 72 73 73 71 70 68 65 63 63 63 63
29 39 37 30 27 25 24 21 20 19 19 21 20 20 23 22 21 21 18 18 20 20 17 15 21 24 24 29 35 36 35 35 36 38 40 39 38 39 39 40 41 46 48 46 49 54 51 46 48 50 53 56 59 62 68 76 72 60 55 54 53 51 51 53 56 58 61 61 60 60 63 64 64 66 69 72 74 71 68 67 66 65 65 64 62 62
23 31 34 28 24 26 27 24 21 22 22 23 21 21 23 22 23 23 21 20 20 19 17 16 24 30 33 40 44 43 41 37 36 37 40 40 40 44 44 45 50 51 49 48 49 51 49 46 51 56 61 65 65 66 69 71 65 54 51 52 51 51 49 51 57 62 64 64 62 60 63 66 67 67 69 71 71 68 65 65 66 67 65 63 60 59
30 28 27 28 27 26 27 26 23 21 22 22 21 22 23 21 26 29 26 25 23 23 23 23 27 33 42 48 47 49 50 43 39 39 40 43 46 49 44 40 46 47 48 51 51 50 47 46 53 58 62 66 66 66 68 68 62 53 49 48 48 50 49 48 54 60 61 61 60 59 62 66 68 69 71 72 69 68 68 67 68 68 64 60 58 59
38 35 29 28 29 26 24 22 21 24 27 25 20 21 23 21 26 31 31 32 33 34 35 35 34 35 46 57 56 53 50 45 46 44 41 44 45 43 37 37 45 48 49 50 51 53 53 55 62 62 60 65 67 69 72 70 62 55 52 49 48 48 49 47 48 53 56 56 56 57 60 65 66 67 72 72 69 70 71 70 69 65 60 58 56 59
38 40 36 31 31 29 27 21 18 24 32 32 26 23 22 20 23 28 30 34 37 37 37 38 41 43 49 58 58 50 45 44 47 46 43 43 43 41 39 41 48 55 56 54 51 51 54 61 69 69 65 74 81 77 71 67 61 55 52 51 50 50 49 50 50 50 53 55 54 55 59 63 64 64 67 70 72 72 71 70 68 62 57 55 54 55
38 41 40 38 36 32 31 27 20 22 30 35 36 30 23 19 22 29 30 31 33 36 36 35 41 48 51 54 54 47 44 44 44 46 46 45 44 46 48 49 52 58 62 62 57 53 56 65 72 73 73 78 85 79 69 68 66 59 56 55 56 56 54 55 55 55 55 54 52 54 57 58 59 62 64 68 72 72 71 70 66 60 57 55 54 53
34 39 40 40 40 36 33 31 25 21 23 30 37 35 27 21 23 27 31 34 36 36 35 35 39 49 54 58 60 56 53 52 49 50 51 48 47 51 55 57 56 56 58 61 63 62 67 72 74 78 81 80 81 78 74 74 69 64 64 61 58 59 59 58 60 61 60 56 52 52 55 54 55 59 62 66 69 70 71 70 65 60 58 56 56 54
33 35 38 38 41 40 35 33 32 26 22 23 30 34 34 31 27 24 26 33 37 37 37 34 37 53 62 64 67 64 61 61 58 57 58 55 54 58 61 61 59 58 56 57 63 67 70 74 74 77 84 84 82 77 72 68 64 63 66 63 60 61 61 58 61 64 62 58 55 54 54 54 54 57 61 65 66 67 68 67 64 61 58 57 57 55
34 35 36 35 38 40 38 35 33 30 25 21 23 27 32 35 35 32 28 27 30 36 41 35 40 66 77 71 70 67 63 65 64 62 61 59 59 62 66 67 65 66 66 62 63 67 70 72 73 73 76 79 80 76 71 68 63 60 61 62 63 65 66 64 63 65 62 59 58 57 56 57 56 58 63 65 66 66 67 66 63 61 59 60 60 57
32 38 41 38 37 38 39 37 33 30 28 24 22 23 28 31 32 34 34 33 30 32 38 38 49 73 77 67 69 69 66 67 64 62 62 59 59 65 72 73 69 69 69 67 67 68 70 72 74 74 74 76 75 72 71 69 65 63 61 62 62 63 67 69 64 64 65 63 61 60 60 59 58 62 67 70 71 69 68 67 63 61 62 63 62 59
31 36 40 42 40 37 36 36 34 32 31 30 26 22 23 26 29 33 37 39 36 35 40 44 55 72 74 69 70 69 66 66 64 64 63 59 60 67 73 73 69 67 66 65 66 68 70 71 72 74 75 76 73 70 71 70 69 68 66 66 63 59 61 65 65 67 71 72 69 65 64 62 62 69 74 76 76 70 68 68 64 61 63 63 62 61
36 37 37 39 41 39 37 37 36 33 31 33 33 29 25 22 25 32 37 41 41 42 48 51 57 70 74 73 74 72 68 67 65 64 62 60 63 67 67 65 62 62 63 63 64 64 66 69 71 71 73 73 70 69 70 69 69 69 67 66 65 61 59 61 65 72 78 83 80 71 67 65 68 75 80 80 76 71 69 69 65 61 62 62 62 62
37 37 35 36 38 37 36 38 39 36 32 34 36 34 32 27 25 28 33 41 42 43 52 57 57 65 69 70 75 74 70 68 66 63 62 63 66 64 62 62 59 59 63 65 64 62 60 64 68 71 72 72 69 69 69 68 69 70 68 65 64 64 65 65 68 73 80 88 86 75 69 69 73 79 83 79 74 73 71 68 65 63 63 63 63 65
43 39 36 38 41 38 36 38 41 40 36 38 37 35 36 36 34 33 36 41 42 42 50 58 63 68 69 71 77 73 68 68 68 66 66 65 65 62 59 59 58 59 62 65 66 63 60 60 63 66 69 69 68 68 68 68 69 72 72 70 67 66 68 72 73 74 82 91 90 81 75 73 75 80 80 74 72 73 72 68 67 67 66 66 65 67
51 48 45 43 44 45 45 44 47 48 44 42 39 36 39 41 41 46 48 46 45 46 49 54 66 75 72 73 81 77 69 69 69 67 66 62 61 60 57 56 57 57 60 62 63 63 63 61 60 61 63 64 64 66 67 66 67 72 74 73 71 68 69 75 76 77 86 93 92 88 82 75 76 80 77 72 72 73 70 68 69 68 68 68 68 68
56 55 53 50 50 55 58 57 58 60 54 48 44 42 46 48 47 52 57 56 56 58 57 57 62 70 73 75 79 77 70 69 68 66 64 61 58 56 54 54 55 57 59 61 62 65 67 66 64 64 64 63 64 67 68 67 66 68 71 72 72 71 75 82 82 82 89 93 91 91 87 81 82 86 80 72 72 73 71 69 69 69 68 69 70 70
60 58 58 59 59 60 64 66 68 67 60 54 53 52 51 53 55 56 59 62 66 68 71 73 70 68 72 73 73 74 71 68 69 69 68 66 62 57 55 55 56 58 60 63 64 66 68 67 67 68 67 65 65 66 67 68 68 69 70 73 73 73 82 90 89 87 93 95 92 91 88 84 85 88 83 75 72 74 74 71 70 69 68 68 71 71
64 64 64 63 61 59 61 66 69 69 64 57 59 63 59 58 63 65 63 62 64 67 73 81 80 72 69 69 69 71 69 65 67 70 71 70 66 63 60 60 61 62 63 65 66 66 65 65 63 64 65 64 63 63 65 67 69 70 72 76 77 79 87 93 91 92 96 98 94 91 88 86 86 86 85 80 77 78 77 74 73 72 70 69 69 68
68 71 70 64 61 59 60 62 62 66 71 67 65 68 68 68 71 74 73 66 60 61 66 71 73 70 65 64 65 65 64 63 65 68 70 71 70 70 69 67 66 66 66 67 66 66 66 65 62 61 63 63 62 63 67 70 72 73 74 78 84 89 91 92 93 96 99 97 93 90 87 85 85 84 83 82 82 82 79 77 76 75 72 69 67 67
68 69 68 64 62 61 60 61 59 62 71 72 68 68 71 76 80 79 79 75 69 68 68 67 68 68 62 59 59 60 62 64 63 64 68 71 73 75 75 72 71 70 68 67 65 65 66 65 63 63 64 67 68 70 73 76 78 81 81 82 90 97 96 93 95 98 98 96 94 91 88 86 85 83 80 81 83 83 82 80 78 76 74 72 70 68
63 63 62 62 63 62 62 63 63 66 72 72 71 71 72 78 87 85 80 78 76 76 76 73 71 68 61 55 56 59 62 66 64 63 67 70 74 77 78 76 74 72 70 67 65 65 66 66 65 65 67 71 74 76 79 81 83 87 90 92 96 99 98 97 98 98 98 97 96 95 92 89 85 82 80 81 83 83 82 82 80 78 77 75 73 71
60 60 60 60 63 65 65 66 69 74 79 79 78 75 72 76 85 85 80 77 74 73 76 74 71 67 62 58 59 62 66 69 69 68 70 71 74 77 78 77 76 73 71 70 67 66 65 65 65 66 69 72 75 78 82 86 88 91 95 97 97 97 97 97 98 97 97 97 97 96 96 93 87 85 84 83 84 84 82 81 81 80 80 78 75 73
59 57 60 62 62 64 67 68 73 80 84 86 83 76 74 79 82 82 81 80 76 72 70 69 67 66 63 62 64 67 69 71 72 74 74 73 74 77 78 77 76 77 76 75 72 70 68 67 67 67 68 72 76 79 83 88 92 94 96 97 96 95 97 99 98 98 98 99 97 96 98 97 91 90 92 89 87 87 84 81 82 82 82 81 78 75
55 50 56 61 58 60 65 69 77 85 87 86 82 76 75 79 79 80 82 81 79 76 73 71 71 70 68 68 70 71 70 69 72 76 76 74 74 75 77 76 75 76 77 77 76 75 74 72 70 67 67 71 75 79 83 87 92 96 97 97 96 95 96 98 98 98 98 99 98 98 99 98 94 94 96 95 92 92 89 86 86 86 84 83 82 79
48 47 50 53 52 53 58 64 75 85 87 84 82 79 78 80 80 81 84 83 80 78 77 77 75 71 70 72 73 73 72 71 73 75 76 75 76 76 78 79 78 76 76 75 75 77 76 72 69 67 68 70 74 79 82 84 89 96 98 95 95 95 94 94 96 97 99 98 98 98 99 98 97 96 97 96 96 95 93 91 90 90 87 85 83 82
45 48 48 51 55 54 57 67 78 84 84 85 86 84 82 84 84 84 87 88 83 77 77 78 76 72 73 75 74 73 72 71 73 76 75 75 77 79 81 82 81 79 77 74 73 75 74 71 69 69 70 71 73 78 80 80 83 92 97 95 94 95 95 96 96 97 99 99 98 99 99 99 99 98 97 97 96 95 95 94 93 91 89 87 86 86
47 50 49 56 64 63 64 73 81 85 88 90 89 87 84 85 85 84 88 91 86 80 79 80 78 76 77 76 74 74 72 71 74 77 75 75 78 79 81 82 80 79 78 75 73 74 75 73 71 70 71 72 72 74 77 78 80 86 92 93 94 94 95 96 98 98 100 99 98 99 99 99 99 98 98 97 95 94 94 94 93 92 91 90 89 89
50 49 48 57 70 73 76 81 83 87 94 94 91 89 87 87 87 86 91 95 90 85 84 83 81 80 78 76 76 75 74 73 76 78 76 76 76 75 75 77 77 77 78 77 75 73 74 74 73 72 72 72 73 74 76 78 80 84 88 90 91 92 91 91 94 97 99 100 99 99 100 100 98 98 98 97 96 96 96 93 92 91 92 92 92 91
52 53 56 64 74 79 83 89 90 93 96 94 92 90 88 88 89 91 96 97 91 88 89 86 84 83 81 80 79 79 77 75 76 79 77 76 75 72 73 75 76 78 79 78 77 74 73 74 73 73 73 74 75 76 77 79 81 84 87 89 91 92 89 87 89 93 96 98 98 97 98 98 97 96 94 93 93 93 92 91 90 89 90 92 92 90
58 61 64 68 78 84 87 91 95 97 97 94 93 91 88 87 88 92 98 99 94 91 91 90 89 89 88 88 87 86 85 82 83 84 83 80 78 76 75 76 78 81 81 78 77 75 73 73 72 72 73 74 75 76 77 81 84 86 87 88 90 90 88 87 89 93 95 95 93 92 92 92 92 91 88 87 85 85 85 86 86 87 88 90 89 89
66 69 68 68 80 89 89 89 93 96 96 95 93 91 87 88 92 94 96 96 93 92 93 94 94 94 94 94 94 93 93 92 92 92 90 88 85 81 78 77 78 81 81 80 78 76 75 74 73 73 73 73 73 73 75 78 81 83 85 86 85 86 87 87 87 90 92 92 89 87 87 88 87 86 83 81 81 81 83 84 85 86 87 87 88 89
71 77 79 79 86 91 90 88 91 95 96 94 92 91 90 92 96 97 97 95 94 93 93 94 94 94 93 95 95 95 96 95 95 95 94 93 91 86 82 80 80 81 82 83 82 80 80 79 77 76 75 76 75 74 74 77 78 79 80 80 79 79 82 83 84 84 86 87 86 85 85 84 83 81 80 80 80 81 82 85 86 85 84 84 84 84
75 82 88 89 88 89 92 95 95 96 96 93 92 93 94 94 96 96 96 95 94 93 92 92 93 93 93 93 94 95 96 96 96 96 95 95 94 90 85 83 82 83 85 86 85 83 83 82 82 82 81 80 78 76 77 80 81 80 79 79 78 76 76 77 78 79 80 81 81 81 80 80 79 78 78 78 78 79 80 80 81 82 81 80 79 78
81 82 86 89 89 88 93 98 97 95 94 92 92 93 93 93 93 92 92 92 92 93 93 93 93 94 93 93 93 94 94 96 98 98 97 97 96 93 90 89 88 87 87 87 87 87 86 85 85 85 85 84 83 81 82 83 83 82 81 80 80 79 77 76 76 76 76 75 73 74 74 74 74 74 74 74 74 74 75 75 74 75 75 74 73 72
88 83 81 86 88 85 88 93 93 92 92 91 90 90 90 90 89 88 88 89 88 89 90 91 91 91 90 90 91 92 92 93 95 96 97 97 97 94 94 96 95 93 92 91 89 89 88 88 87 86 86 87 86 85 86 87 87 87 86 85 83 81 80 81 79 77 76 75 74 73 73 72 71 70 69 68 68 68 70 71 72 73 73 72 72 71
88 82 79 82 83 82 85 87 84 82 84 84 84 84 84 84 84 83 83 84 84 84 85 85 84 84 83 83 84 87 89 90 91 93 94 95 96 95 95 98 98 96 95 94 93 91 90 90 91 90 90 89 88 87 86 86 88 90 90 90 88 85 84 86 86 83 82 81 81 80 78 76 75 73 72 71 70 68 68 69 70 71 73 74 74 74
80 77 75 76 75 76 80 79 75 73 75 76 77 78 78 79 80 79 79 79 80 81 81 80 80 80 79 78 78 80 82 84 87 90 91 93 96 96 95 97 98 97 97 95 95 94 94 94 94 94 94 92 90 90 89 89 89 91 90 90 91 91 90 90 91 91 91 90 88 86 83 80 80 78 77 76 75 73 72 71 71 71 71 71 71 71
70 67 67 68 70 73 76 76 72 70 71 72 73 74 75 76 77 78 79 79 80 80 79 78 79 79 78 77 76 76 76 77 79 82 85 89 93 95 96 97 98 97 96 95 95 96 96 97 96 95 95 95 94 94 93 93 93 94 92 92 93 93 93 91 90 90 91 91 89 87 85 84 84 82 80 77 74 72 71 70 70 70 69 68 68 67
68 67 66 67 71 75 75 72 69 67 67 68 68 69 70 72 73 74 77 78 78 78 76 76 77 79 80 80 79 78 78 76 75 75 77 81 85 88 90 93 95 96 95 95 96 96 96 96 95 94 94 94 94 94 94 94 94 94 93 93 93 93 92 91 89 87 85 85 86 85 84 83 83 82 82 80 76 73 70 68 65 63 62 61 59 58
68 69 67 63 65 67 65 62 60 58 57 60 62 62 64 66 67 70 73 75 76 76 75 74 75 78 82 83 83 82 82 81 79 78 76 76 79 81 83 84 87 90 93 93 94 94 94 94 94 94 92 90 89 89 89 89 90 90 90 90 90 90 89 89 89 87 84 83 82 82 80 78 77 76 76 75 73 70 67 64 58 55 52 50 49 47